^^
Paulen-Weather Station Historical Data
Daily Summary for January 27, 2022 Units:  Metric    English   Both
Daily Weekly Monthly Yearly Custom
  High: Low: Average:
Temperature: 9 °C 5 °C 7.2 °C
Dew Point: 8 °C -1 °C 3.3 °C
Humidity: 98% 61% 77%
Wind Speed: 51km/h 16km/h 32.7km/h
Wind Gust: 47km/h - -
Wind- - WNW
Pressure: 1010.67 hPa 992.38 hPa -
Precipitation: 0.41 mm    
Historical Graphs
 
 
Tabular Data for January 27, 2022
Time Temperature Dew Point Pressure Wind Wind Speed Wind Gust Humidity Rainfall Rate (Hourly) solar
00:04 7 °C 6 °C 1003.32 hPa NNE 30 km/h 28 km/h 98% 0.41 mm 0 W/m2
00:09 7 °C 6 °C 1003.25 hPa N 34 km/h 26 km/h 98% 0.41 mm 0 W/m2
00:14 7 °C 6 °C 1003.08 hPa NNW 33 km/h 25 km/h 98% 0.41 mm 0 W/m2
00:19 7 °C 6 °C 1002.91 hPa N 35 km/h 28 km/h 98% 0.2 mm 0 W/m2
00:24 7 °C 6 °C 1002.68 hPa NNE 27 km/h 20 km/h 98% 0.2 mm 0 W/m2
00:29 7 °C 6 °C 1002.47 hPa NNW 25 km/h 19 km/h 98% 0.2 mm 0 W/m2
00:34 7 °C 6 °C 1002.24 hPa N 28 km/h 21 km/h 98% 0.2 mm 0 W/m2
00:39 7 °C 7 °C 1002.03 hPa N 27 km/h 18 km/h 98% 0.2 mm 0 W/m2
00:44 7 °C 7 °C 1001.9 hPa NNW 22 km/h 18 km/h 98% 0.2 mm 0 W/m2
00:49 7 °C 7 °C 1001.69 hPa NW 18 km/h 15 km/h 98% 0.2 mm 0 W/m2
00:54 7 °C 7 °C 1001.56 hPa NNW 19 km/h 13 km/h 98% 0.2 mm 0 W/m2
00:59 7 °C 7 °C 1001.46 hPa NW 22 km/h 15 km/h 98% 0.2 mm 0 W/m2
01:04 7 °C 7 °C 1001.25 hPa NNW 17 km/h 10 km/h 98% 0.2 mm 0 W/m2
01:09 7 °C 7 °C 1001.12 hPa NW 20 km/h 13 km/h 98% 0 mm 0 W/m2
01:14 7 °C 7 °C 1001.02 hPa NNW 19 km/h 15 km/h 98% 0 mm 0 W/m2
01:19 7 °C 7 °C 1000.91 hPa NW 23 km/h 11 km/h 98% 0 mm 0 W/m2
01:24 7 °C 7 °C 1000.75 hPa NW 23 km/h 15 km/h 98% 0 mm 0 W/m2
01:29 7 °C 7 °C 1000.61 hPa NNW 23 km/h 13 km/h 98% 0 mm 0 W/m2
01:34 8 °C 7 °C 1000.44 hPa NNW 28 km/h 16 km/h 98% 0 mm 0 W/m2
01:39 8 °C 7 °C 1000.41 hPa NW 22 km/h 16 km/h 98% 0 mm 0 W/m2
01:44 8 °C 7 °C 1000.34 hPa WNW 23 km/h 18 km/h 98% 0 mm 0 W/m2
01:49 8 °C 7 °C 1000.24 hPa NW 23 km/h 19 km/h 97% 0 mm 0 W/m2
01:54 8 °C 7 °C 1000.24 hPa NNW 22 km/h 16 km/h 97% 0 mm 0 W/m2
01:59 8 °C 7 °C 1000.1 hPa NNW 18 km/h 13 km/h 97% 0 mm 0 W/m2
02:04 8 °C 7 °C 1000 hPa NW 23 km/h 15 km/h 97% 0 mm 0 W/m2
02:09 8 °C 8 °C 999.9 hPa NW 19 km/h 13 km/h 97% 0 mm 0 W/m2
02:14 8 °C 8 °C 999.83 hPa NW 23 km/h 10 km/h 97% 0 mm 0 W/m2
02:19 8 °C 8 °C 999.8 hPa NW 26 km/h 17 km/h 97% 0 mm 0 W/m2
02:24 8 °C 8 °C 999.59 hPa NNW 22 km/h 15 km/h 97% 0 mm 0 W/m2
02:29 8 °C 8 °C 999.42 hPa NNW 24 km/h 14 km/h 96% 0 mm 0 W/m2
02:34 8 °C 8 °C 999.26 hPa NW 16 km/h 15 km/h 96% 0 mm 0 W/m2
02:39 8 °C 8 °C 999.15 hPa NNW 21 km/h 17 km/h 96% 0 mm 0 W/m2
02:44 8 °C 8 °C 999.15 hPa NW 29 km/h 20 km/h 95% 0 mm 0 W/m2
02:49 8 °C 8 °C 999.09 hPa NW 23 km/h 16 km/h 95% 0 mm 0 W/m2
02:54 8 °C 8 °C 998.98 hPa NW 19 km/h 12 km/h 95% 0 mm 0 W/m2
02:59 8 °C 8 °C 998.85 hPa NNW 23 km/h 15 km/h 94% 0 mm 0 W/m2
03:04 8 °C 7 °C 998.68 hPa NW 24 km/h 14 km/h 94% 0 mm 0 W/m2
03:09 8 °C 7 °C 998.65 hPa NW 29 km/h 26 km/h 93% 0 mm 0 W/m2
03:14 8 °C 7 °C 998.58 hPa NW 25 km/h 20 km/h 93% 0 mm 0 W/m2
03:19 8 °C 7 °C 998.51 hPa NW 25 km/h 15 km/h 92% 0 mm 0 W/m2
03:24 8 °C 7 °C 998.44 hPa NNW 25 km/h 19 km/h 92% 0 mm 0 W/m2
03:29 8 °C 7 °C 998.41 hPa NW 29 km/h 19 km/h 92% 0 mm 0 W/m2
03:34 9 °C 7 °C 998.38 hPa NW 23 km/h 15 km/h 91% 0 mm 0 W/m2
03:39 9 °C 7 °C 998.27 hPa NW 21 km/h 13 km/h 91% 0 mm 0 W/m2
03:44 9 °C 7 °C 998.14 hPa NW 27 km/h 18 km/h 91% 0 mm 0 W/m2
03:49 9 °C 7 °C 998.14 hPa NW 31 km/h 18 km/h 90% 0 mm 0 W/m2
03:54 9 °C 7 °C 998 hPa NW 29 km/h 18 km/h 89% 0 mm 0 W/m2
03:59 9 °C 7 °C 997.97 hPa NW 25 km/h 17 km/h 89% 0 mm 0 W/m2
04:04 8 °C 7 °C 997.8 hPa NW 22 km/h 14 km/h 89% 0 mm 0 W/m2
04:09 8 °C 7 °C 997.73 hPa NW 20 km/h 13 km/h 89% 0 mm 0 W/m2
04:14 8 °C 7 °C 997.56 hPa NW 21 km/h 11 km/h 89% 0 mm 0 W/m2
04:19 8 °C 7 °C 997.56 hPa NW 25 km/h 15 km/h 89% 0 mm 0 W/m2
04:24 8 °C 7 °C 997.39 hPa NW 22 km/h 18 km/h 88% 0 mm 0 W/m2
04:29 9 °C 7 °C 997.22 hPa NW 28 km/h 22 km/h 87% 0 mm 0 W/m2
04:34 8 °C 6 °C 997.12 hPa NW 20 km/h 12 km/h 87% 0 mm 0 W/m2
04:39 8 °C 6 °C 997.05 hPa NW 22 km/h 19 km/h 86% 0 mm 0 W/m2
04:44 8 °C 6 °C 996.78 hPa NNW 25 km/h 15 km/h 86% 0 mm 0 W/m2
04:49 8 °C 6 °C 996.51 hPa NW 22 km/h 14 km/h 86% 0 mm 0 W/m2
04:54 8 °C 6 °C 996.51 hPa NW 30 km/h 16 km/h 86% 0 mm 0 W/m2
04:59 8 °C 6 °C 996.34 hPa NW 25 km/h 16 km/h 86% 0 mm 0 W/m2
05:04 8 °C 6 °C 996.28 hPa NW 30 km/h 19 km/h 86% 0 mm 0 W/m2
05:09 8 °C 6 °C 996.17 hPa NW 25 km/h 18 km/h 87% 0 mm 0 W/m2
05:14 8 °C 6 °C 996 hPa NW 23 km/h 18 km/h 88% 0 mm 0 W/m2
05:19 8 °C 6 °C 995.87 hPa NW 25 km/h 20 km/h 89% 0 mm 0 W/m2
05:24 8 °C 6 °C 995.73 hPa NW 29 km/h 16 km/h 89% 0 mm 0 W/m2
05:29 8 °C 6 °C 995.53 hPa NW 27 km/h 20 km/h 88% 0 mm 0 W/m2
05:34 8 °C 6 °C 995.46 hPa NW 31 km/h 20 km/h 88% 0 mm 0 W/m2
05:39 8 °C 6 °C 995.33 hPa NW 33 km/h 22 km/h 87% 0 mm 0 W/m2
05:44 8 °C 6 °C 995.09 hPa NW 28 km/h 26 km/h 87% 0 mm 0 W/m2
05:49 8 °C 6 °C 994.82 hPa NW 37 km/h 22 km/h 88% 0.2 mm 0 W/m2
05:54 8 °C 6 °C 994.68 hPa NNW 28 km/h 19 km/h 88% 0.2 mm 0 W/m2
05:59 8 °C 6 °C 994.65 hPa NNW 35 km/h 20 km/h 87% 0.2 mm 0 W/m2
06:04 7 °C 5 °C 994.62 hPa NW 29 km/h 20 km/h 87% 0.2 mm 0 W/m2
06:09 7 °C 5 °C 994.48 hPa NW 28 km/h 18 km/h 87% 0.2 mm 0 W/m2
06:14 7 °C 5 °C 994.41 hPa NNW 33 km/h 18 km/h 87% 0.2 mm 0 W/m2
06:19 7 °C 5 °C 994.35 hPa NNW 30 km/h 24 km/h 87% 0.2 mm 0 W/m2
06:24 7 °C 5 °C 994.18 hPa NNW 33 km/h 22 km/h 87% 0.2 mm 0 W/m2
06:29 7 °C 5 °C 994.18 hPa NW 34 km/h 24 km/h 88% 0.2 mm 0 W/m2
06:34 7 °C 5 °C 994.18 hPa N 37 km/h 25 km/h 89% 0.2 mm 0 W/m2
06:39 7 °C 5 °C 994.07 hPa NNW 36 km/h 19 km/h 90% 0.2 mm 0 W/m2
06:44 7 °C 5 °C 994.04 hPa NW 35 km/h 21 km/h 91% 0.2 mm 0 W/m2
06:49 7 °C 6 °C 993.94 hPa WNW 28 km/h 17 km/h 91% 0.2 mm 0 W/m2
06:54 7 °C 6 °C 993.63 hPa NNW 34 km/h 17 km/h 92% 0 mm 0 W/m2
06:59 7 °C 5 °C 993.53 hPa NW 22 km/h 15 km/h 92% 0 mm 0 W/m2
07:04 7 °C 6 °C 993.36 hPa WSW 24 km/h 15 km/h 92% 0 mm 0 W/m2
07:09 7 °C 6 °C 993.26 hPa NNW 27 km/h 19 km/h 93% 0 mm 0 W/m2
07:14 7 °C 6 °C 993.02 hPa NW 28 km/h 18 km/h 93% 0 mm 0 W/m2
07:19 7 °C 6 °C 992.96 hPa NW 34 km/h 21 km/h 93% 0 mm 0 W/m2
07:24 7 °C 6 °C 992.86 hPa NW 30 km/h 19 km/h 93% 0 mm 0 W/m2
07:29 7 °C 6 °C 992.79 hPa NNW 23 km/h 15 km/h 93% 0 mm 0 W/m2
07:34 7 °C 6 °C 992.69 hPa NNW 27 km/h 16 km/h 93% 0 mm 0 W/m2
07:39 7 °C 6 °C 992.58 hPa NW 27 km/h 18 km/h 93% 0 mm 0 W/m2
07:44 7 °C 6 °C 992.48 hPa NNW 23 km/h 16 km/h 93% 0 mm 0 W/m2
07:49 7 °C 6 °C 992.42 hPa NW 25 km/h 17 km/h 93% 0 mm 0 W/m2
07:54 7 °C 6 °C 992.42 hPa NW 19 km/h 11 km/h 93% 0 mm 0 W/m2
07:59 7 °C 6 °C 992.38 hPa NNW 18 km/h 15 km/h 93% 0 mm 0 W/m2
08:04 7 °C 6 °C 992.45 hPa NNW 20 km/h 15 km/h 93% 0 mm 0 W/m2
08:09 7 °C 6 °C 992.62 hPa NW 21 km/h 21 km/h 92% 0 mm 0 W/m2
08:14 7 °C 6 °C 992.72 hPa NNW 26 km/h 20 km/h 91% 0 mm 0 W/m2
08:19 8 °C 6 °C 992.75 hPa NNW 33 km/h 19 km/h 89% 0 mm 0 W/m2
08:24 8 °C 6 °C 992.82 hPa NW 35 km/h 23 km/h 86% 0 mm 0 W/m2
08:29 8 °C 5 °C 992.89 hPa NW 24 km/h 17 km/h 84% 0 mm 0 W/m2
08:34 8 °C 5 °C 993.06 hPa NW 31 km/h 20 km/h 83% 0 mm 0 W/m2
08:39 8 °C 5 °C 993.16 hPa NNW 24 km/h 17 km/h 82% 0 mm 5 W/m2
08:44 8 °C 5 °C 993.26 hPa NW 37 km/h 23 km/h 82% 0 mm 7 W/m2
08:49 7 °C 4 °C 993.26 hPa NW 31 km/h 22 km/h 81% 0 mm 11 W/m2
08:54 7 °C 4 °C 993.33 hPa NW 31 km/h 23 km/h 81% 0 mm 14 W/m2
08:59 7 °C 4 °C 993.43 hPa NW 30 km/h 26 km/h 80% 0 mm 19 W/m2
09:04 7 °C 4 °C 993.63 hPa NW 35 km/h 28 km/h 80% 0 mm 23 W/m2
09:09 7 °C 4 °C 993.5 hPa NNW 37 km/h 26 km/h 79% 0 mm 28 W/m2
09:14 7 °C 4 °C 993.6 hPa NNW 31 km/h 24 km/h 79% 0 mm 35 W/m2
09:19 7 °C 4 °C 993.57 hPa NNW 29 km/h 21 km/h 79% 0 mm 42 W/m2
09:24 7 °C 4 °C 993.53 hPa NNW 30 km/h 20 km/h 80% 0 mm 47 W/m2
09:29 7 °C 4 °C 993.74 hPa NNW 31 km/h 23 km/h 80% 0 mm 56 W/m2
09:34 7 °C 4 °C 993.67 hPa NNW 27 km/h 26 km/h 80% 0 mm 63 W/m2
09:39 7 °C 4 °C 993.74 hPa NNW 30 km/h 25 km/h 81% 0 mm 74 W/m2
09:44 7 °C 4 °C 993.84 hPa NW 31 km/h 20 km/h 81% 0 mm 77 W/m2
09:49 7 °C 4 °C 993.94 hPa NW 27 km/h 20 km/h 81% 0 mm 79 W/m2
09:54 7 °C 4 °C 993.87 hPa NW 31 km/h 25 km/h 81% 0 mm 81 W/m2
09:59 7 °C 4 °C 993.84 hPa NW 47 km/h 33 km/h 80% 0 mm 86 W/m2
10:04 7 °C 3 °C 993.94 hPa NW 35 km/h 29 km/h 79% 0 mm 91 W/m2
10:09 7 °C 3 °C 993.8 hPa NW 43 km/h 26 km/h 78% 0 mm 97 W/m2
10:14 7 °C 3 °C 993.91 hPa NNW 37 km/h 22 km/h 77% 0 mm 102 W/m2
10:19 7 °C 3 °C 993.8 hPa NW 38 km/h 31 km/h 75% 0 mm 109 W/m2
10:24 7 °C 3 °C 993.94 hPa NW 39 km/h 29 km/h 75% 0 mm 113 W/m2
10:29 7 °C 3 °C 994.01 hPa NW 42 km/h 32 km/h 74% 0 mm 120 W/m2
10:34 7 °C 3 °C 993.91 hPa NW 43 km/h 32 km/h 74% 0 mm 125 W/m2
10:39 7 °C 2 °C 994.07 hPa NW 36 km/h 29 km/h 74% 0 mm 130 W/m2
10:44 7 °C 2 °C 994.11 hPa NNW 36 km/h 25 km/h 74% 0 mm 135 W/m2
10:49 7 °C 2 °C 994.11 hPa NW 36 km/h 24 km/h 74% 0 mm 139 W/m2
10:54 7 °C 2 °C 994.28 hPa NW 39 km/h 28 km/h 73% 0 mm 146 W/m2
10:59 7 °C 2 °C 994.38 hPa NNW 32 km/h 24 km/h 73% 0 mm 148 W/m2
11:04 7 °C 2 °C 994.38 hPa NNW 38 km/h 28 km/h 73% 0 mm 155 W/m2
11:09 7 °C 2 °C 994.51 hPa NW 42 km/h 28 km/h 73% 0 mm 162 W/m2
11:14 7 °C 2 °C 994.55 hPa NW 40 km/h 28 km/h 73% 0 mm 163 W/m2
11:19 7 °C 2 °C 994.68 hPa NW 37 km/h 30 km/h 73% 0 mm 165 W/m2
11:24 7 °C 3 °C 994.82 hPa NW 34 km/h 20 km/h 74% 0 mm 171 W/m2
11:29 7 °C 3 °C 994.92 hPa NNW 32 km/h 28 km/h 74% 0 mm 193 W/m2
11:34 7 °C 3 °C 995.19 hPa NW 27 km/h 22 km/h 74% 0 mm 197 W/m2
11:39 7 °C 3 °C 995.33 hPa NW 38 km/h 33 km/h 74% 0 mm 197 W/m2
11:44 7 °C 3 °C 995.36 hPa NW 30 km/h 23 km/h 75% 0 mm 192 W/m2
11:49 7 °C 3 °C 995.33 hPa NW 30 km/h 23 km/h 74% 0 mm 197 W/m2
11:54 7 °C 3 °C 995.19 hPa NW 42 km/h 26 km/h 74% 0 mm 197 W/m2
11:59 7 °C 3 °C 995.23 hPa NW 30 km/h 20 km/h 74% 0 mm 195 W/m2
12:04 7 °C 3 °C 995.26 hPa NW 29 km/h 21 km/h 74% 0 mm 197 W/m2
12:09 7 °C 3 °C 995.4 hPa NW 32 km/h 21 km/h 74% 0 mm 202 W/m2
12:14 7 °C 3 °C 995.53 hPa NW 31 km/h 23 km/h 74% 0 mm 213 W/m2
12:19 7 °C 3 °C 995.67 hPa NW 30 km/h 21 km/h 74% 0 mm 211 W/m2
12:24 7 °C 3 °C 995.63 hPa NNW 31 km/h 23 km/h 74% 0 mm 207 W/m2
12:29 7 °C 3 °C 995.77 hPa NW 28 km/h 22 km/h 74% 0 mm 200 W/m2
12:34 7 °C 3 °C 995.9 hPa NNW 34 km/h 23 km/h 74% 0 mm 202 W/m2
12:39 7 °C 3 °C 995.87 hPa NNW 25 km/h 21 km/h 74% 0 mm 202 W/m2
12:44 7 °C 3 °C 996.04 hPa NNW 32 km/h 23 km/h 73% 0 mm 202 W/m2
12:49 7 °C 3 °C 996.21 hPa NNW 32 km/h 27 km/h 73% 0 mm 211 W/m2
12:54 7 °C 3 °C 996.21 hPa NW 32 km/h 22 km/h 73% 0 mm 211 W/m2
12:59 7 °C 3 °C 996.11 hPa NW 26 km/h 24 km/h 73% 0 mm 209 W/m2
13:04 7 °C 3 °C 996.28 hPa NW 32 km/h 27 km/h 72% 0 mm 209 W/m2
13:09 7 °C 3 °C 996.34 hPa NNW 22 km/h 20 km/h 72% 0 mm 207 W/m2
13:14 7 °C 3 °C 996.51 hPa NNW 36 km/h 27 km/h 71% 0 mm 211 W/m2
13:19 7 °C 3 °C 996.55 hPa NNW 25 km/h 21 km/h 72% 0 mm 234 W/m2
13:24 7 °C 3 °C 996.48 hPa NNW 28 km/h 25 km/h 72% 0 mm 251 W/m2
13:29 8 °C 3 °C 996.28 hPa NW 29 km/h 24 km/h 71% 0 mm 244 W/m2
13:34 8 °C 3 °C 996.11 hPa NW 28 km/h 23 km/h 71% 0 mm 244 W/m2
13:39 8 °C 3 °C 996.07 hPa NW 24 km/h 17 km/h 71% 0 mm 234 W/m2
13:44 8 °C 3 °C 996.31 hPa NNW 31 km/h 21 km/h 71% 0 mm 202 W/m2
13:49 8 °C 3 °C 996.28 hPa NNW 22 km/h 18 km/h 71% 0 mm 216 W/m2
13:54 8 °C 3 °C 996.14 hPa NW 30 km/h 19 km/h 71% 0 mm 169 W/m2
13:59 7 °C 3 °C 995.94 hPa NW 32 km/h 27 km/h 71% 0 mm 128 W/m2
14:04 7 °C 3 °C 995.77 hPa NW 35 km/h 29 km/h 71% 0 mm 153 W/m2
14:09 7 °C 3 °C 995.73 hPa NW 36 km/h 26 km/h 71% 0 mm 190 W/m2
14:14 8 °C 3 °C 995.8 hPa NNW 39 km/h 28 km/h 71% 0 mm 211 W/m2
14:19 8 °C 3 °C 995.8 hPa NW 38 km/h 29 km/h 71% 0 mm 218 W/m2
14:24 8 °C 3 °C 995.73 hPa NW 36 km/h 30 km/h 70% 0 mm 218 W/m2
14:29 8 °C 3 °C 995.94 hPa NNW 34 km/h 25 km/h 70% 0 mm 134 W/m2
14:34 8 °C 2 °C 995.94 hPa NW 36 km/h 27 km/h 69% 0 mm 98 W/m2
14:39 8 °C 2 °C 995.97 hPa NNW 38 km/h 26 km/h 70% 0 mm 107 W/m2
14:44 8 °C 2 °C 996.07 hPa NNW 40 km/h 37 km/h 70% 0 mm 179 W/m2
14:49 8 °C 2 °C 996.11 hPa NNW 42 km/h 29 km/h 69% 0 mm 179 W/m2
14:54 8 °C 2 °C 996.28 hPa NNW 43 km/h 35 km/h 68% 0 mm 176 W/m2
14:59 8 °C 2 °C 996.51 hPa NNW 44 km/h 36 km/h 68% 0 mm 151 W/m2
15:04 8 °C 2 °C 996.85 hPa NNW 37 km/h 29 km/h 68% 0 mm 72 W/m2
15:09 8 °C 2 °C 996.99 hPa NNW 32 km/h 27 km/h 68% 0 mm 62 W/m2
15:14 7 °C 2 °C 997.12 hPa NNW 29 km/h 29 km/h 69% 0 mm 54 W/m2
15:19 7 °C 2 °C 997.26 hPa NNW 31 km/h 26 km/h 70% 0 mm 51 W/m2
15:24 7 °C 2 °C 997.36 hPa NNW 38 km/h 29 km/h 71% 0 mm 47 W/m2
15:29 7 °C 2 °C 997.49 hPa NNW 33 km/h 25 km/h 71% 0 mm 40 W/m2
15:34 7 °C 2 °C 997.6 hPa NNW 31 km/h 28 km/h 71% 0 mm 37 W/m2
15:39 7 °C 2 °C 997.63 hPa NNW 28 km/h 22 km/h 71% 0 mm 46 W/m2
15:44 7 °C 2 °C 997.77 hPa NNW 38 km/h 39 km/h 69% 0 mm 69 W/m2
15:49 7 °C 2 °C 998 hPa NNW 43 km/h 36 km/h 68% 0 mm 70 W/m2
15:54 8 °C 2 °C 998.27 hPa NNW 41 km/h 36 km/h 67% 0 mm 63 W/m2
15:59 8 °C 2 °C 998.27 hPa NNW 40 km/h 36 km/h 66% 0 mm 60 W/m2
16:04 8 °C 2 °C 998.61 hPa NNW 42 km/h 33 km/h 65% 0 mm 28 W/m2
16:09 8 °C 2 °C 998.71 hPa N 44 km/h 35 km/h 65% 0 mm 21 W/m2
16:14 8 °C 1 °C 998.88 hPa NNW 41 km/h 30 km/h 65% 0 mm 18 W/m2
16:19 8 °C 1 °C 998.95 hPa NNW 36 km/h 27 km/h 64% 0 mm 16 W/m2
16:24 8 °C 1 °C 999.12 hPa NNW 40 km/h 35 km/h 64% 0 mm 12 W/m2
16:29 8 °C 1 °C 999.36 hPa N 42 km/h 43 km/h 64% 0 mm 11 W/m2
16:34 8 °C 1 °C 999.53 hPa NNW 44 km/h 44 km/h 64% 0 mm 11 W/m2
16:39 8 °C 1 °C 999.7 hPa NNW 35 km/h 29 km/h 65% 0 mm 12 W/m2
16:44 7 °C 1 °C 999.83 hPa NNW 34 km/h 32 km/h 64% 0 mm 11 W/m2
16:49 7 °C 1 °C 1000 hPa NNW 34 km/h 27 km/h 65% 0 mm 9 W/m2
16:54 7 °C 1 °C 1000.14 hPa NNW 29 km/h 24 km/h 65% 0 mm 0 W/m2
16:59 7 °C 1 °C 1000.31 hPa NNW 35 km/h 30 km/h 64% 0 mm 0 W/m2
17:04 7 °C 1 °C 1000.44 hPa NNW 30 km/h 25 km/h 65% 0 mm 0 W/m2
17:09 7 °C 1 °C 1000.58 hPa NNW 29 km/h 24 km/h 65% 0 mm 0 W/m2
17:14 7 °C 2 °C 1000.68 hPa NNW 34 km/h 29 km/h 67% 0 mm 0 W/m2
17:19 7 °C 1 °C 1000.78 hPa NNW 34 km/h 29 km/h 67% 0 mm 0 W/m2
17:24 7 °C 1 °C 1000.98 hPa NNW 35 km/h 30 km/h 68% 0 mm 0 W/m2
17:29 7 °C 1 °C 1001.05 hPa NNW 40 km/h 35 km/h 68% 0 mm 0 W/m2
17:34 7 °C 1 °C 1001.08 hPa NNW 42 km/h 33 km/h 67% 0 mm 0 W/m2
17:39 7 °C 1 °C 1001.22 hPa NNW 41 km/h 36 km/h 67% 0 mm 0 W/m2
17:44 7 °C 1 °C 1001.32 hPa NNW 43 km/h 33 km/h 67% 0 mm 0 W/m2
17:49 7 °C 1 °C 1001.52 hPa NNW 44 km/h 35 km/h 67% 0 mm 0 W/m2
17:54 7 °C 1 °C 1001.73 hPa NNW 32 km/h 25 km/h 67% 0 mm 0 W/m2
17:59 7 °C 1 °C 1001.86 hPa NNW 35 km/h 30 km/h 68% 0 mm 0 W/m2
18:04 7 °C 1 °C 1001.96 hPa NNW 31 km/h 30 km/h 69% 0 mm 0 W/m2
18:09 7 °C 1 °C 1002.13 hPa NNW 36 km/h 30 km/h 69% 0 mm 0 W/m2
18:14 7 °C 1 °C 1002.3 hPa NNW 39 km/h 34 km/h 68% 0 mm 0 W/m2
18:19 7 °C 1 °C 1002.57 hPa NNW 34 km/h 26 km/h 68% 0 mm 0 W/m2
18:24 7 °C 1 °C 1002.64 hPa NNW 33 km/h 26 km/h 68% 0 mm 0 W/m2
18:29 7 °C 1 °C 1002.71 hPa NNW 35 km/h 28 km/h 68% 0 mm 0 W/m2
18:34 7 °C 1 °C 1002.95 hPa NNW 34 km/h 29 km/h 68% 0 mm 0 W/m2
18:39 7 °C 1 °C 1003.01 hPa NNW 28 km/h 26 km/h 67% 0 mm 0 W/m2
18:44 7 °C 1 °C 1003.22 hPa NNW 33 km/h 29 km/h 67% 0 mm 0 W/m2
18:49 7 °C 1 °C 1003.39 hPa NNW 31 km/h 28 km/h 66% 0 mm 0 W/m2
18:54 7 °C 1 °C 1003.62 hPa NNW 33 km/h 27 km/h 65% 0 mm 0 W/m2
18:59 7 °C 1 °C 1003.86 hPa NNW 27 km/h 23 km/h 65% 0 mm 0 W/m2
19:04 7 °C 1 °C 1003.96 hPa NNW 31 km/h 26 km/h 64% 0 mm 0 W/m2
19:09 7 °C 0 °C 1004 hPa NNW 31 km/h 26 km/h 64% 0 mm 0 W/m2
19:14 7 °C 0 °C 1004 hPa NNW 29 km/h 25 km/h 63% 0 mm 0 W/m2
19:19 7 °C 0 °C 1004.1 hPa NNW 38 km/h 33 km/h 62% 0 mm 0 W/m2
19:24 7 °C 0 °C 1004.13 hPa NNW 36 km/h 31 km/h 62% 0 mm 0 W/m2
19:29 7 °C 0 °C 1004.13 hPa NNW 37 km/h 30 km/h 61% 0 mm 0 W/m2
19:34 7 °C 0 °C 1004.13 hPa NNW 33 km/h 29 km/h 61% 0 mm 0 W/m2
19:39 7 °C 0 °C 1004.13 hPa NNW 38 km/h 35 km/h 61% 0 mm 0 W/m2
19:44 7 °C 0 °C 1004.34 hPa NNW 43 km/h 34 km/h 61% 0 mm 0 W/m2
19:49 7 °C 0 °C 1004.47 hPa NNW 40 km/h 37 km/h 61% 0 mm 0 W/m2
19:54 7 °C 0 °C 1004.5 hPa NNW 40 km/h 33 km/h 61% 0 mm 0 W/m2
19:59 7 °C 0 °C 1004.71 hPa NNW 39 km/h 33 km/h 61% 0 mm 0 W/m2
20:04 7 °C 0 °C 1004.78 hPa NNW 36 km/h 32 km/h 61% 0 mm 0 W/m2
20:09 7 °C 0 °C 1004.88 hPa NNW 39 km/h 32 km/h 61% 0 mm 0 W/m2
20:14 7 °C 0 °C 1005.25 hPa N 34 km/h 32 km/h 63% 0 mm 0 W/m2
20:19 6 °C 0 °C 1005.35 hPa N 38 km/h 33 km/h 64% 0 mm 0 W/m2
20:24 6 °C 0 °C 1005.42 hPa N 38 km/h 35 km/h 64% 0 mm 0 W/m2
20:29 6 °C 0 °C 1005.66 hPa N 40 km/h 41 km/h 65% 0 mm 0 W/m2
20:34 6 °C 0 °C 1005.76 hPa N 37 km/h 32 km/h 65% 0 mm 0 W/m2
20:39 6 °C 0 °C 1005.83 hPa N 39 km/h 34 km/h 66% 0 mm 0 W/m2
20:44 6 °C 1 °C 1005.83 hPa N 43 km/h 39 km/h 66% 0 mm 0 W/m2
20:49 6 °C 1 °C 1005.96 hPa N 40 km/h 36 km/h 66% 0 mm 0 W/m2
20:54 6 °C 0 °C 1006.03 hPa N 43 km/h 40 km/h 65% 0 mm 0 W/m2
20:59 6 °C 0 °C 1006.1 hPa N 41 km/h 40 km/h 65% 0 mm 0 W/m2
21:04 6 °C 0 °C 1006.16 hPa N 43 km/h 37 km/h 65% 0 mm 0 W/m2
21:09 6 °C 0 °C 1006.06 hPa N 48 km/h 45 km/h 64% 0 mm 0 W/m2
21:14 6 °C 0 °C 1006.13 hPa N 48 km/h 42 km/h 64% 0 mm 0 W/m2
21:19 6 °C 0 °C 1006.54 hPa N 45 km/h 41 km/h 64% 0 mm 0 W/m2
21:24 6 °C 0 °C 1006.74 hPa N 42 km/h 36 km/h 65% 0 mm 0 W/m2
21:29 6 °C 0 °C 1006.94 hPa N 43 km/h 38 km/h 65% 0 mm 0 W/m2
21:34 6 °C 1 °C 1007.04 hPa N 36 km/h 33 km/h 65% 0 mm 0 W/m2
21:39 6 °C 0 °C 1007.28 hPa N 42 km/h 36 km/h 65% 0 mm 0 W/m2
21:44 6 °C 0 °C 1007.35 hPa N 38 km/h 36 km/h 65% 0 mm 0 W/m2
21:49 6 °C 0 °C 1007.48 hPa N 42 km/h 39 km/h 65% 0 mm 0 W/m2
21:54 6 °C 0 °C 1007.48 hPa N 41 km/h 37 km/h 65% 0 mm 0 W/m2
21:59 6 °C 0 °C 1007.62 hPa N 40 km/h 36 km/h 65% 0 mm 0 W/m2
22:04 6 °C 0 °C 1007.82 hPa N 42 km/h 39 km/h 64% 0 mm 0 W/m2
22:09 6 °C 0 °C 1008.03 hPa N 42 km/h 34 km/h 65% 0 mm 0 W/m2
22:14 6 °C 0 °C 1008.16 hPa N 40 km/h 37 km/h 65% 0 mm 0 W/m2
22:19 6 °C 0 °C 1008.26 hPa N 41 km/h 33 km/h 65% 0 mm 0 W/m2
22:24 6 °C 0 °C 1008.43 hPa N 41 km/h 36 km/h 66% 0 mm 0 W/m2
22:29 6 °C 0 °C 1008.47 hPa N 44 km/h 41 km/h 65% 0 mm 0 W/m2
22:34 6 °C 0 °C 1008.47 hPa N 51 km/h 46 km/h 65% 0 mm 0 W/m2
22:39 6 °C 0 °C 1008.74 hPa N 49 km/h 46 km/h 66% 0 mm 0 W/m2
22:44 6 °C 0 °C 1008.84 hPa N 48 km/h 42 km/h 66% 0 mm 0 W/m2
22:49 6 °C 0 °C 1008.91 hPa N 51 km/h 47 km/h 65% 0 mm 0 W/m2
22:54 6 °C 0 °C 1008.97 hPa N 47 km/h 42 km/h 66% 0 mm 0 W/m2
22:59 6 °C 0 °C 1009.25 hPa N 50 km/h 41 km/h 66% 0 mm 0 W/m2
23:04 6 °C 0 °C 1009.31 hPa N 49 km/h 43 km/h 65% 0 mm 0 W/m2
23:09 6 °C 0 °C 1009.52 hPa N 40 km/h 40 km/h 67% 0 mm 0 W/m2
23:14 6 °C 0 °C 1009.65 hPa N 49 km/h 43 km/h 65% 0 mm 0 W/m2
23:19 6 °C 0 °C 1009.82 hPa N 40 km/h 35 km/h 65% 0 mm 0 W/m2
23:24 6 °C 0 °C 1009.92 hPa N 41 km/h 36 km/h 65% 0 mm 0 W/m2
23:29 6 °C 0 °C 1010.13 hPa N 44 km/h 37 km/h 65% 0 mm 0 W/m2
23:34 6 °C 0 °C 1010.33 hPa N 42 km/h 36 km/h 64% 0 mm 0 W/m2
23:39 6 °C 0 °C 1010.43 hPa N 41 km/h 37 km/h 65% 0 mm 0 W/m2
23:44 6 °C 0 °C 1010.5 hPa N 48 km/h 41 km/h 64% 0 mm 0 W/m2
23:49 6 °C -1 °C 1010.6 hPa N 40 km/h 36 km/h 64% 0 mm 0 W/m2
23:54 6 °C 0 °C 1010.67 hPa N 39 km/h 35 km/h 65% 0 mm 0 W/m2
23:59 5 °C -1 °C 1010.67 hPa N 42 km/h 38 km/h 63% 0 mm 0 W/m2
Compliments of Weather Underground - 2 mb